Torna al catalogo

DELTA 1 DEB

AttivoPO
NORAD 12185·DEBRIS·🇺🇸 United States

Lanciato Mar 5, 1978 da Vandenberg Space Force Base

Loading…

Prossimi Passaggi (prossime 24 ore)

TLE

AggiornatoSource: Space-Track

Epoca: Sep 13, 2026, 22:00 UTC

1 12185U 78026AA  26256.91701696  .00000504  00000-0  26176-3 0  9994
2 12185  99.2596 251.8964 0090502  47.2497  15.7861 14.17349930341909

Traccia DELTA 1 DEB in tempo reale con AllMySat

Download on the App Store